Flag for U.S.A. Weather past 2 weeks in Charleston, South Carolina, U.S.A.

Now
67 °F

Passing clouds.


Feels Like: 67 °F
Forecast: 66 / 77 °F
Wind: No wind

Location: Charleston Air Force Base Reporting Station

Current Time: Apr 19, 2015 at 6:42:27 AM

Latest Report: Apr 19, 2015 at 5:56 AM


Visibility: 10 mi

Pressure: 29.93 "Hg

Humidity: 93%

Dew point: 65 °F

Location of CharlestonLocation

Historic Weather in Charleston — Graph

°F

Charleston temperature yesterday

Maximum temperature yesterday: 75 °F (at 11:56 AM)
Minimum temperature yesterday: 67 °F (at 2:56 AM)
Average temperature yesterday: 70 °F

Past Weeks' High & Low Weather Summary

 TemperatureHumidityPressure
High87 °F (Apr 8, 3:56 PM)100% (Apr 13, 1:02 AM)30.33 "Hg (Apr 13, 1:02 AM)
Low48 °F (Apr 5, 6:56 AM)27% (Apr 4, 5:56 PM)29.92 "Hg (Apr 19, 4:56 AM)
Average69 °F78%30.13 "Hg
* Reported Apr 4 4:56 AM — Apr 19 4:56 AM, Charleston, Weather by CustomWeather, © 2015

Note: Actual official high and low records may vary slightly from our data, if they occured in-between our weather recording intervals... More about our weather records

Advertising

Charleston weather history for previous 24 hours

 ConditionsComfort  
Time TempWeatherWind HumidityBarometerVisibility
4:56 AM
Sun, Apr 19
67 °FPassing clouds.No wind93%29.92 "Hg10 mi
3:56 AM67 °FPassing clouds.No wind93%29.94 "Hg10 mi
2:56 AM66 °FPassing clouds.No wind96%29.94 "Hg8 mi
1:56 AM66 °FFog.No wind93%29.96 "Hg8 mi
12:56 AM67 °FMostly cloudy.No wind93%29.97 "Hg10 mi
11:56 PM
Sat, Apr 18
67 °FMostly cloudy.No wind93%29.98 "Hg10 mi
10:56 PM68 °FPassing clouds.6 mph90%29.99 "Hg10 mi
9:56 PM68 °FOvercast.5 mph90%29.99 "Hg10 mi
8:56 PM68 °FPassing clouds.5 mph90%29.96 "Hg10 mi
7:56 PM69 °FBroken clouds.8 mph87%29.93 "Hg10 mi
6:56 PM72 °FLight rain. Broken clouds.10 mph84%29.93 "Hg10 mi
5:56 PM72 °FBroken clouds.7 mph84%29.93 "Hg10 mi
4:56 PM74 °FBroken clouds.9 mph82%29.93 "Hg10 mi
3:56 PM74 °FBroken clouds.10 mph85%29.94 "Hg10 mi
2:56 PM73 °FLight rain. Fog.8 mph88%29.96 "Hg4 mi
1:56 PM72 °FLight rain. Fog.3 mph91%29.98 "Hg4 mi
12:56 PM72 °FHeavy rain. Fog.5 mph87%29.99 "Hg4 mi
11:56 AM75 °FPartly sunny.5 mph76%29.99 "Hg10 mi
10:56 AM72 °FCloudy.No wind84%30.00 "Hg10 mi
9:56 AM71 °FFog.3 mph90%29.99 "Hg6 mi
8:56 AM69 °FFog.No wind93%29.98 "Hg4 mi
7:56 AM68 °FFog.No wind93%29.98 "Hg5 mi
6:56 AM67 °FFog.No wind97%29.98 "Hg4 mi
Weather by CustomWeather, © 2015

See weather overviewHow to use our weather pages